This is the latest recevied weather packets stored in our database for station/object N7BTW-13. If no packets are shown the sender has not sent any weather packets the latest 10 day(s).
| Time | Temp. | Humidity | Pressure | Rain* | Wind** | Luminosity | Snow |
|---|---|---|---|---|---|---|---|
| 1787886012 | 21.11° C | 63% | - | 0 mm | - | - | - |
| 1787885407 | 22.22° C | 60% | - | 0 mm | - | - | - |
| 1787884809 | 23.89° C | 56% | - | 0 mm | - | - | - |
| 1787884209 | 23.89° C | 57% | - | 0 mm | - | - | - |
| 1787883611 | 23.89° C | 57% | - | 0 mm | - | - | - |
| 1787883011 | 25° C | 55% | - | 0 mm | - | - | - |
| 1787882407 | 25.56° C | 54% | - | 0 mm | - | - | - |
| 1787881808 | 26.11° C | 54% | - | 0 mm | - | - | - |
| 1787881207 | 26.11° C | 53% | - | 0 mm | - | - | - |
| 1787880606 | 26.11° C | 53% | - | 0 mm | - | - | - |
| 1787880006 | 26.11° C | 54% | - | 0 mm | - | - | - |
| 1787879407 | 26.67° C | 53% | - | 0 mm | - | - | - |
| 1787878809 | 26.11° C | 52% | - | 0 mm | - | - | - |
| 1787878209 | 24.44° C | 55% | - | 0 mm | - | - | - |
| 1787877607 | 26.11° C | 51% | - | 0 mm | - | - | - |
| 1787877016 | 27.22° C | 48% | - | 0 mm | - | - | - |
| 1787876412 | 27.22° C | 48% | - | 0 mm | - | - | - |
| 1787875805 | 26.11° C | 51% | - | 0 mm | - | - | - |
| 1787875212 | 25.56° C | 54% | - | 0 mm | - | - | - |
| 1787874610 | 25° C | 54% | - | 0 mm | - | - | - |
| 1787874007 | 26.11° C | 51% | - | 0 mm | - | - | - |
| 1787873407 | 27.22° C | 50% | - | 0 mm | - | - | - |
| 1787872810 | 26.11° C | 51% | - | 0 mm | - | - | - |
| 1787872209 | 25° C | 53% | - | 0 mm | - | - | - |
| 1787871607 | 25° C | 53% | - | 0 mm | - | - | - |
* Rain latest hour (hover to see other rain measurements)
** Current wind speed in m/s (hover to see current wind gust speed)